Weather Roundup
Issued by NWS

Home | Current Version | Previous Version | Graphics & Text | Print | Product List | Glossary Off
Versions: 1 2 3 4 5 6 7 8 9 10 11 12 13 14 15 16 17 18 19 20 21 22 23 24 25 26 27 28 29 30 31 32 33 34 35 36 37 38 39 40 41 42 43 44 45 46 47 48 49 50

000
NZUS93 KARX 030710
HRRWXR

CURRENT HOURLY OBSERVATIONS ACROSS
MUCH OF THE UPPER MISSISSIPPI VALLEY
NATIONAL WEATHER SERVICE LA CROSSE WI
200 AM CDT SUN MAY 03 2015


...SOUTHEAST MINNESOTA...


CITY           SKY/WX    TMP DP  RH WIND       PRES   REMARKS
ROCHESTER      CLEAR     56  50  80 S10       29.85F
ROCHESTER/MAYO FAIR      58  51  76 SE3       29.84F
WINONA         CLEAR     61  50  67 CALM      29.86S
AUSTIN         CLEAR     55  50  82 S6        29.83F
ALBERT LEA     CLEAR     57  50  77 S10       29.81F
DODGE CENTER   CLEAR     57  52  82 S12       29.83F
PRESTON        CLEAR     55  49  83 S10       29.86F
OWATONNA       CLEAR     59  48  67 S15       29.81S
FARIBAULT      CLEAR     59  50  72 S8        29.81S
$$

...ELSEWHERE IN MINNESOTA...


CITY           SKY/WX    TMP DP  RH WIND       PRES   REMARKS
MINNEAPOLIS    CLEAR     64  52  64 S14       29.77F
INTNL FALLS    CLOUDY    56  42  59 NW9       29.62S
DULUTH         CLOUDY    56  42  59 SE5       29.69F
RED WING       CLEAR     63  48  59 S7        29.82S
REDWOOD FALLS  CLEAR     60  52  74 S14       29.73F
MANKATO        CLEAR     57  46  67 SE10      29.79S
WORTHINGTON    MOCLDY    57  48  72 S16       29.74S
FAIRMONT       CLEAR     57  46  67 SE14      29.76F
$$

...SOUTHWEST WISCONSIN...


CITY           SKY/WX    TMP DP  RH WIND       PRES   REMARKS
LA CROSSE      CLEAR     62  51  67 S8        29.86F
PRAIRIE DU CHI CLOUDY    60  50  69 E5        29.89F
BOSCOBEL       PTCLDY    59  50  72 S5        29.90F
LONE ROCK      MOCLDY    61  49  64 CALM      29.92R
PLATTEVILLE    CLOUDY    59  51  74 SE8       29.93S
FORT MC COY    CLEAR     58  47  69 S3        29.89S
CAMP DOUGLAS   CLEAR     61  51  70 S8        29.88S
VIROQUA        FAIR      57  50  77 S7        29.90S
WIS DELLS      NOT AVBL
$$

...ELSEWHERE IN WISCONSIN...


CITY           SKY/WX    TMP DP  RH WIND       PRES   REMARKS
MILWAUKEE      PTCLDY    59  39  47 SW7       29.94S
MADISON        CLEAR     62  48  60 SW5       29.93R
GREEN BAY      CLEAR     58  45  62 S5        29.89R
EAU CLAIRE     CLEAR     61  49  64 S9        29.82S
BLACK RVR FLS  FAIR      56  48  72 S5        29.86S
MEDFORD        PTCLDY    58  49  69 S12       29.85S
WAUSAU         CLEAR     61  48  62 SW13      29.84F
WIS RAPIDS     CLEAR     54  46  74 S5        29.89F
MARSHFIELD     CLEAR     59  48  67 S8        29.86F
RICE LAKE      PTCLDY    63  49  61 S9        29.81S
$$

...NORTHEAST IOWA...


CITY           SKY/WX    TMP DP  RH WIND       PRES   REMARKS
DECORAH        CLOUDY    59  52  77 S9        29.87F
MASON CITY     PTCLDY    54  49  83 SE9       29.83F
CHARLES CITY   MOCLDY    59  52  77 S13       29.86F
OELWEIN        MOCLDY    59  52  77 SE12      29.88F
$$

...ELSEWHERE IN IOWA...


CITY           SKY/WX    TMP DP  RH WIND       PRES   REMARKS
DES MOINES     CLOUDY    60  49  66 S8        29.84S
IOWA CITY      PTCLDY    55  51  86 CALM      29.93F
FORT DODGE     CLOUDY    59  52  77 S10G18    29.79F
$$

...NORTHERN ILLINOIS...


CITY           SKY/WX    TMP DP  RH WIND       PRES   REMARKS
CHICAGO-OHARE  MOCLDY    60  40  47 SW5       29.97S
CHICAGO-MIDWAY MOCLDY    61  40  45 S6        29.98S
MOLINE         CLOUDY    59  47  64 E3        29.93F
ROCKFORD       CLOUDY    59  43  55 S7        29.98S
PEORIA         PTCLDY    59  46  62 S3        29.98S
$$

NOTE: "FAIR" INDICATES FEW OR NO CLOUDS BELOW 12,000 FEET WITH NO
SIGNIFICANT WEATHER AND/OR OBSTRUCTIONS TO VISIBILITY. WIND
SPEEDS ARE IN MILES-PER-HOUR.



USA.gov is the U.S. government's official web portal to all federal, state and local government web resources and services.